Skip Page Navigation
NASA JPL Caltech
NASA Logo - Jet Propulsion Laboratory + View the NASA Portal
+ Center for Near-Earth Object Studies
JPL Home Earth Solar System Stars & Galaxies Technology
JPL Solar System Dynamics
BODIES ORBITS EPHEMERIDES TOOLS PHYSICAL DATA DISCOVERY FAQ SITE MAP
JPL Small-Body Database Browser
Search: [ help ]  
135036 (2001 NF11)
Classification: Main-belt Asteroid          SPK-ID: 2135036
Ephemeris | Orbit Diagram | Orbital Elements | Mission Design | Physical Parameters | Discovery Circumstances | Close-Approach Data ]

[ show orbit diagram ]
Orbital Elements at Epoch 2459200.5 (2020-Dec-17.0) TDB
Reference: JPL 21 (heliocentric ecliptic J2000)
 Element Value Uncertainty (1-sigma)   Units 
e .2111361457655379 3.8645e-08  
a 2.793850407475687 1.0561e-08 au
q 2.203967600595793 1.0723e-07 au
i 4.710243164048778 4.4472e-06 deg
node 160.0641995610533 3.8432e-05 deg
peri 183.9823110394743 3.9597e-05 deg
M 29.25849870858361 7.6315e-06 deg
tp 2459061.871447870511
(2020-Jul-31.37144787)
3.613e-05 TDB
period 1705.701965903503
4.67
9.6715e-06
2.648e-08
d
yr
n .2110568007754564 1.1967e-09 deg/d
Q 3.383733214355581 1.2791e-08 au
  Orbit Determination Parameters
   # obs. used (total)      854  
   data-arc span      7139 days (19.55 yr)  
   first obs. used      2001-06-27  
   last obs. used      2021-01-12  
   planetary ephem.      DE441  
   SB-pert. ephem.      SB441-N16  
   condition code      0  
   norm. resid. RMS      .48811  
   source      ORB  
   producer      Otto Matic  
   solution date      2021-Apr-13 18:11:13  

Additional Information
 Earth MOID = 1.19456 au 
 Jupiter MOID = 2.03414 au 
 T_jup = 3.290 
[ show covariance matrix ]

Ephemeris | Orbit Diagram | Orbital Elements | Mission Design | Physical Parameters | Discovery Circumstances | Close-Approach Data ]

Physical Parameter Table
Parameter Symbol Value Units Sigma Reference Notes
absolute magnitude H 15.48   n/a E2021B55  
diameter diameter 3.449 km 1.022 urn:nasa:pds:neowise_diameters_albedos::2.0[mainbelt] (http://adsabs.harvard.edu/abs/2011ApJ...741...68M)  
geometric albedo albedo 0.123   0.051 urn:nasa:pds:neowise_diameters_albedos::2.0[mainbelt] (http://adsabs.harvard.edu/abs/2011ApJ...741...68M)  

135036 (2001 NF11)          Discovered 2001-Jul-14 by NEAT at Haleakala
Reference: 20060907/Numbers.arcLast Updated: 2006-09-10

[ show close-approach data ]
Ephemeris | Orbit Diagram | Orbital Elements | Mission Design | Physical Parameters | Discovery Circumstances | Close-Approach Data ]
ABOUT SSD CREDITS/AWARDS PRIVACY/COPYRIGHT GLOSSARY LINKS
FirstGov 2021-May-11 01:21 UT
(server date/time)  
NASA Home Page
Site Manager:   Ryan S. Park
Webmaster  Alan B. Chamberlin